Time,TemperatureF,DewpointF,PressureIn,WindDirection,WindDirectionDegrees,WindSpeedMPH,WindSpeedGustMPH,Humidity,HourlyPrecipIn,Conditions,Clouds,dailyrainin,SoftwareType,DateUTC
2016-02-07 00:02:00,32.7,24.4,30.13,South,181,1.0,1.0,71,0.00,,,0.00,WeatherCatV2.21B110,2016-02-07 05:02:00,
2016-02-07 00:07:00,32.7,24.4,30.13,South,181,0.0,0.0,71,0.00,,,0.00,WeatherCatV2.21B110,2016-02-07 05:07:00,
2016-02-07 00:12:00,32.5,24.5,30.13,South,181,0.0,1.0,72,0.00,,,0.00,WeatherCatV2.21B110,2016-02-07 05:12:00,
2016-02-07 00:17:00,32.5,24.5,30.12,South,181,0.0,1.0,72,0.00,,,0.00,WeatherCatV2.21B110,2016-02-07 05:17:00,
2016-02-07 00:23:00,32.5,24.5,30.12,South,181,0.0,0.0,72,0.00,,,0.00,WeatherCatV2.21B110,2016-02-07 05:23:00,
2016-02-07 00:28:00,32.5,24.5,30.12,South,181,0.0,1.0,72,0.00,,,0.00,WeatherCatV2.21B110,2016-02-07 05:28:00,
2016-02-07 00:33:00,32.4,24.4,30.12,South,181,0.0,0.0,72,0.00,,,0.00,WeatherCatV2.21B110,2016-02-07 05:33:00,
2016-02-07 00:38:00,32.2,24.2,30.12,South,181,0.0,1.0,72,0.00,,,0.00,WeatherCatV2.21B110,2016-02-07 05:38:00,
2016-02-07 00:43:00,32.1,24.4,30.12,South,181,1.0,1.0,73,0.00,,,0.00,WeatherCatV2.21B110,2016-02-07 05:43:00,
2016-02-07 00:49:00,32.1,24.4,30.11,South,181,0.0,0.0,73,0.00,,,0.00,WeatherCatV2.21B110,2016-02-07 05:49:00,
2016-02-07 00:54:00,31.9,24.2,30.11,South,181,2.0,2.0,73,0.00,,,0.00,WeatherCatV2.21B110,2016-02-07 05:54:00,
2016-02-07 00:59:00,31.9,24.2,30.11,South,181,1.0,2.0,73,0.00,,,0.00,WeatherCatV2.21B110,2016-02-07 05:59:00,
2016-02-07 01:04:00,31.8,24.1,30.11,South,181,1.0,3.0,73,0.00,,,0.00,WeatherCatV2.21B110,2016-02-07 06:04:00,
2016-02-07 01:10:00,31.8,24.1,30.11,South,181,0.0,2.0,73,0.00,,,0.00,WeatherCatV2.21B110,2016-02-07 06:10:00,
2016-02-07 01:15:00,31.6,24.0,30.10,South,181,0.0,2.0,73,0.00,,,0.00,WeatherCatV2.21B110,2016-02-07 06:15:00,
2016-02-07 01:20:00,31.6,24.0,30.10,South,180,0.0,1.0,73,0.00,,,0.00,WeatherCatV2.21B110,2016-02-07 06:20:00,
2016-02-07 01:25:00,31.8,24.1,30.10,South,180,0.0,2.0,73,0.00,,,0.00,WeatherCatV2.21B110,2016-02-07 06:25:00,
2016-02-07 01:30:00,31.9,24.2,30.10,South,180,0.0,1.0,73,0.00,,,0.00,WeatherCatV2.21B110,2016-02-07 06:30:00,
2016-02-07 01:36:00,31.9,24.2,30.10,South,180,0.0,0.0,73,0.00,,,0.00,WeatherCatV2.21B110,2016-02-07 06:36:00,
2016-02-07 01:41:00,31.8,24.1,30.10,SSW,208,0.0,2.0,73,0.00,,,0.00,WeatherCatV2.21B110,2016-02-07 06:41:00,
2016-02-07 01:46:00,31.9,24.2,30.09,South,181,0.0,2.0,73,0.00,,,0.00,WeatherCatV2.21B110,2016-02-07 06:46:00,
2016-02-07 01:51:00,31.9,24.2,30.09,South,181,0.0,1.0,73,0.00,,,0.00,WeatherCatV2.21B110,2016-02-07 06:51:00,
2016-02-07 01:56:00,31.9,24.2,30.09,South,181,0.0,2.0,73,0.00,,,0.00,WeatherCatV2.21B110,2016-02-07 06:56:00,
2016-02-07 02:02:00,31.9,24.2,30.09,South,179,0.0,1.0,73,0.00,,,0.00,WeatherCatV2.21B110,2016-02-07 07:02:00,
2016-02-07 02:07:00,31.9,24.2,30.09,South,170,1.0,2.0,73,0.00,,,0.00,WeatherCatV2.21B110,2016-02-07 07:07:00,
2016-02-07 02:12:00,32.1,24.4,30.09,South,170,1.0,2.0,73,0.00,,,0.00,WeatherCatV2.21B110,2016-02-07 07:12:00,
2016-02-07 02:28:00,32.8,24.5,30.09,South,172,0.0,1.0,71,0.00,,,0.00,WeatherCatV2.21B110,2016-02-07 07:28:00,
2016-02-07 02:33:00,33.1,24.7,30.09,South,172,1.0,1.0,71,0.00,,,0.00,WeatherCatV2.21B110,2016-02-07 07:33:00,
2016-02-07 02:38:00,33.2,24.8,30.09,SSW,206,0.0,2.0,71,0.00,,,0.00,WeatherCatV2.21B110,2016-02-07 07:38:00,
2016-02-07 02:43:00,33.5,24.8,30.09,SSE,164,2.0,3.0,70,0.00,,,0.00,WeatherCatV2.21B110,2016-02-07 07:43:00,
2016-02-07 02:48:00,33.7,24.6,30.08,South,170,0.0,3.0,69,0.00,,,0.00,WeatherCatV2.21B110,2016-02-07 07:48:00,
2016-02-07 02:54:00,33.8,24.7,30.08,South,186,0.0,3.0,69,0.00,,,0.00,WeatherCatV2.21B110,2016-02-07 07:54:00,
2016-02-07 02:59:00,34.0,24.6,30.08,SSW,204,3.0,3.0,68,0.00,,,0.00,WeatherCatV2.21B110,2016-02-07 07:59:00,
2016-02-07 03:04:00,34.1,24.7,30.08,South,187,0.0,1.0,68,0.00,,,0.00,WeatherCatV2.21B110,2016-02-07 08:04:00,
2016-02-07 03:14:00,34.1,24.3,30.08,South,187,0.0,3.0,67,0.00,,,0.00,WeatherCatV2.21B110,2016-02-07 08:14:00,
2016-02-07 03:20:00,34.1,24.3,30.08,SSW,199,0.0,4.0,67,0.00,,,0.00,WeatherCatV2.21B110,2016-02-07 08:20:00,
2016-02-07 03:25:00,34.1,24.3,30.08,SSW,199,1.0,2.0,67,0.00,,,0.00,WeatherCatV2.21B110,2016-02-07 08:25:00,
2016-02-07 03:30:00,34.0,24.2,30.07,SSW,199,2.0,3.0,67,0.00,,,0.00,WeatherCatV2.21B110,2016-02-07 08:30:00,
2016-02-07 03:35:00,34.0,24.2,30.07,South,180,0.0,2.0,67,0.00,,,0.00,WeatherCatV2.21B110,2016-02-07 08:35:00,
2016-02-07 03:40:00,33.8,24.0,30.07,South,191,1.0,2.0,67,0.00,,,0.00,WeatherCatV2.21B110,2016-02-07 08:40:00,
2016-02-07 03:46:00,33.7,23.9,30.06,SSW,193,2.0,3.0,67,0.00,,,0.00,WeatherCatV2.21B110,2016-02-07 08:46:00,
2016-02-07 03:51:00,33.7,23.9,30.06,SSW,199,0.0,1.0,67,0.00,,,0.00,WeatherCatV2.21B110,2016-02-07 08:51:00,
2016-02-07 03:56:00,33.7,23.9,30.06,South,188,1.0,1.0,67,0.00,,,0.00,WeatherCatV2.21B110,2016-02-07 08:56:00,
2016-02-07 04:01:00,33.5,23.7,30.06,South,188,1.0,2.0,67,0.00,,,0.00,WeatherCatV2.21B110,2016-02-07 09:01:00,
2016-02-07 04:06:00,33.5,23.7,30.06,SSW,198,3.0,3.0,67,0.00,,,0.00,WeatherCatV2.21B110,2016-02-07 09:06:00,
2016-02-07 04:12:00,33.5,23.7,30.06,SSW,198,2.0,2.0,67,0.00,,,0.00,WeatherCatV2.21B110,2016-02-07 09:12:00,
2016-02-07 04:17:00,33.5,23.7,30.05,South,176,0.0,3.0,67,0.00,,,0.00,WeatherCatV2.21B110,2016-02-07 09:17:00,
2016-02-07 04:22:00,33.5,23.7,30.05,SSW,211,0.0,2.0,67,0.00,,,0.00,WeatherCatV2.21B110,2016-02-07 09:22:00,
2016-02-07 04:27:00,33.4,23.6,30.05,SSW,211,0.0,1.0,67,0.00,,,0.00,WeatherCatV2.21B110,2016-02-07 09:27:00,
2016-02-07 04:32:00,33.4,23.6,30.05,SSW,211,1.0,4.0,67,0.00,,,0.00,WeatherCatV2.21B110,2016-02-07 09:32:00,
2016-02-07 04:38:00,33.4,23.6,30.05,SSW,211,0.0,3.0,67,0.00,,,0.00,WeatherCatV2.21B110,2016-02-07 09:38:00,
2016-02-07 04:43:00,33.4,23.6,30.05,SW,221,0.0,2.0,67,0.00,,,0.00,WeatherCatV2.21B110,2016-02-07 09:43:00,
2016-02-07 04:53:00,33.2,23.5,30.05,SW,221,0.0,0.0,67,0.00,,,0.00,WeatherCatV2.21B110,2016-02-07 09:53:00,
2016-02-07 04:58:00,33.1,23.4,30.05,SSW,209,0.0,2.0,67,0.00,,,0.00,WeatherCatV2.21B110,2016-02-07 09:58:00,
2016-02-07 05:04:00,33.1,23.4,30.05,SSW,209,1.0,1.0,67,0.00,,,0.00,WeatherCatV2.21B110,2016-02-07 10:04:00,
2016-02-07 05:09:00,33.1,23.4,30.05,SSW,209,0.0,1.0,67,0.00,,,0.00,WeatherCatV2.21B110,2016-02-07 10:09:00,
2016-02-07 05:14:00,32.8,23.1,30.04,SSW,209,0.0,2.0,67,0.00,,,0.00,WeatherCatV2.21B110,2016-02-07 10:14:00,
2016-02-07 05:19:00,32.8,23.1,30.04,SSW,209,0.0,2.0,67,0.00,,,0.00,WeatherCatV2.21B110,2016-02-07 10:19:00,
2016-02-07 05:24:00,32.7,23.0,30.04,SW,216,0.0,2.0,67,0.00,,,0.00,WeatherCatV2.21B110,2016-02-07 10:24:00,
2016-02-07 05:30:00,32.5,22.8,30.04,SW,216,2.0,3.0,67,0.00,,,0.00,WeatherCatV2.21B110,2016-02-07 10:30:00,
2016-02-07 05:35:00,32.5,22.8,30.04,SW,216,0.0,3.0,67,0.00,,,0.00,WeatherCatV2.21B110,2016-02-07 10:35:00,
2016-02-07 05:40:00,32.4,23.0,30.04,SW,216,2.0,3.0,68,0.00,,,0.00,WeatherCatV2.21B110,2016-02-07 10:40:00,
2016-02-07 05:45:00,32.2,22.9,30.03,SW,216,0.0,2.0,68,0.00,,,0.00,WeatherCatV2.21B110,2016-02-07 10:45:00,
2016-02-07 05:50:00,32.2,22.9,30.03,SW,216,1.0,2.0,68,0.00,,,0.00,WeatherCatV2.21B110,2016-02-07 10:50:00,
2016-02-07 05:56:00,32.2,22.9,30.03,SW,216,0.0,1.0,68,0.00,,,0.00,WeatherCatV2.21B110,2016-02-07 10:56:00,
2016-02-07 06:01:00,32.2,22.9,30.03,SW,216,0.0,1.0,68,0.00,,,0.00,WeatherCatV2.21B110,2016-02-07 11:01:00,
2016-02-07 06:06:00,31.9,22.9,30.03,SW,216,0.0,1.0,69,0.00,,,0.00,WeatherCatV2.21B110,2016-02-07 11:06:00,
2016-02-07 06:22:00,31.5,22.9,30.02,SW,216,1.0,1.0,70,0.00,,,0.00,WeatherCatV2.21B110,2016-02-07 11:22:00,
2016-02-07 06:27:00,31.5,22.9,30.02,SW,216,1.0,2.0,70,0.00,,,0.00,WeatherCatV2.21B110,2016-02-07 11:27:00,
2016-02-07 06:32:00,31.3,22.7,30.02,SW,216,0.0,1.0,70,0.00,,,0.00,WeatherCatV2.21B110,2016-02-07 11:32:00,
2016-02-07 06:42:00,31.3,23.0,30.02,SW,216,1.0,1.0,71,0.00,,,0.00,WeatherCatV2.21B110,2016-02-07 11:42:00,
2016-02-07 06:48:00,31.5,23.2,30.02,SW,216,0.0,1.0,71,0.00,,,0.00,WeatherCatV2.21B110,2016-02-07 11:48:00,
2016-02-07 06:53:00,31.6,23.3,30.02,SSW,204,1.0,2.0,71,0.00,,,0.00,WeatherCatV2.21B110,2016-02-07 11:53:00,
2016-02-07 06:58:00,31.8,23.1,30.02,SSW,204,3.0,3.0,70,0.00,,,0.00,WeatherCatV2.21B110,2016-02-07 11:58:00,
2016-02-07 07:03:00,32.1,23.4,30.01,SSW,194,4.0,4.0,70,0.00,,,0.00,WeatherCatV2.21B110,2016-02-07 12:03:00,
2016-02-07 07:08:00,32.5,23.5,30.01,South,184,2.0,4.0,69,0.00,,,0.00,WeatherCatV2.21B110,2016-02-07 12:08:00,
2016-02-07 07:24:00,32.8,23.4,30.00,South,191,3.0,3.0,68,0.00,,,0.00,WeatherCatV2.21B110,2016-02-07 12:24:00,
2016-02-07 07:29:00,32.8,23.1,29.99,SSW,201,2.0,2.0,67,0.00,,,0.00,WeatherCatV2.21B110,2016-02-07 12:29:00,
2016-02-07 07:34:00,32.9,23.2,29.99,SSW,194,2.0,4.0,67,0.00,,,0.00,WeatherCatV2.21B110,2016-02-07 12:34:00,
2016-02-07 07:40:00,33.1,23.4,29.99,South,175,1.0,5.0,67,0.00,,,0.00,WeatherCatV2.21B110,2016-02-07 12:40:00,
2016-02-07 07:45:00,33.2,23.5,29.98,SSW,197,0.0,3.0,67,0.00,,,0.00,WeatherCatV2.21B110,2016-02-07 12:45:00,
2016-02-07 07:50:00,33.1,23.4,29.98,South,190,1.0,3.0,67,0.00,,,0.00,WeatherCatV2.21B110,2016-02-07 12:50:00,
2016-02-07 07:55:00,33.2,23.1,29.98,SSW,193,0.0,2.0,66,0.00,,,0.00,WeatherCatV2.21B110,2016-02-07 12:55:00,
2016-02-07 08:00:00,33.2,23.5,29.98,SSW,193,0.0,4.0,67,0.00,,,0.00,WeatherCatV2.21B110,2016-02-07 13:00:00,
2016-02-07 08:06:00,33.2,23.5,29.98,South,178,1.0,3.0,67,0.00,,,0.00,WeatherCatV2.21B110,2016-02-07 13:06:00,
2016-02-07 08:11:00,33.5,23.4,29.98,South,177,0.0,1.0,66,0.00,,,0.00,WeatherCatV2.21B110,2016-02-07 13:11:00,
2016-02-07 08:16:00,33.7,23.6,29.98,South,177,0.0,0.0,66,0.00,,,0.00,WeatherCatV2.21B110,2016-02-07 13:16:00,
2016-02-07 08:21:00,34.0,24.2,29.98,South,188,3.0,5.0,67,0.00,,,0.00,WeatherCatV2.21B110,2016-02-07 13:21:00,
2016-02-07 08:26:00,34.3,23.8,29.98,SW,216,2.0,4.0,65,0.00,,,0.00,WeatherCatV2.21B110,2016-02-07 13:26:00,
2016-02-07 08:32:00,34.6,24.1,29.98,SSW,199,1.0,3.0,65,0.00,,,0.00,WeatherCatV2.21B110,2016-02-07 13:32:00,
2016-02-07 08:37:00,35.0,24.1,29.98,South,184,3.0,5.0,64,0.00,,,0.00,WeatherCatV2.21B110,2016-02-07 13:37:00,
2016-02-07 08:42:00,35.3,24.0,29.98,South,189,3.0,5.0,63,0.00,,,0.00,WeatherCatV2.21B110,2016-02-07 13:42:00,
2016-02-07 08:52:00,35.9,24.2,29.98,SSW,205,1.0,6.0,62,0.00,,,0.00,WeatherCatV2.21B110,2016-02-07 13:52:00,
2016-02-07 08:58:00,36.2,24.5,29.98,South,188,1.0,3.0,62,0.00,,,0.00,WeatherCatV2.21B110,2016-02-07 13:58:00,
2016-02-07 09:03:00,36.5,24.0,29.98,SW,229,2.0,4.0,60,0.00,,,0.00,WeatherCatV2.21B110,2016-02-07 14:03:00,
2016-02-07 09:08:00,36.8,24.2,29.98,SSE,168,2.0,3.0,60,0.00,,,0.00,WeatherCatV2.21B110,2016-02-07 14:08:00,
2016-02-07 09:13:00,36.9,24.3,29.98,South,187,5.0,5.0,60,0.00,,,0.00,WeatherCatV2.21B110,2016-02-07 14:13:00,
2016-02-07 09:18:00,37.3,24.7,29.99,South,171,2.0,6.0,60,0.00,,,0.00,WeatherCatV2.21B110,2016-02-07 14:18:00,
2016-02-07 09:24:00,37.8,24.8,29.99,SSW,203,1.0,2.0,59,0.00,,,0.00,WeatherCatV2.21B110,2016-02-07 14:24:00,
2016-02-07 09:29:00,38.0,24.1,29.98,South,171,5.0,5.0,57,0.00,,,0.00,WeatherCatV2.21B110,2016-02-07 14:29:00,
2016-02-07 09:34:00,38.3,24.0,29.98,South,182,0.0,4.0,56,0.00,,,0.00,WeatherCatV2.21B110,2016-02-07 14:34:00,
2016-02-07 09:39:00,38.5,24.6,29.98,SSE,152,0.0,5.0,57,0.00,,,0.00,WeatherCatV2.21B110,2016-02-07 14:39:00,
2016-02-07 09:44:00,38.6,24.3,29.97,South,187,3.0,4.0,56,0.00,,,0.00,WeatherCatV2.21B110,2016-02-07 14:44:00,
2016-02-07 09:50:00,38.8,24.0,29.97,SSW,206,2.0,5.0,55,0.00,,,0.00,WeatherCatV2.21B110,2016-02-07 14:50:00,
2016-02-07 10:05:00,40.3,24.5,29.97,SE,145,7.0,7.0,53,0.00,,,0.00,WeatherCatV2.21B110,2016-02-07 15:05:00,
2016-02-07 10:10:00,41.3,24.5,29.97,SSE,162,5.0,7.0,51,0.00,,,0.00,WeatherCatV2.21B110,2016-02-07 15:10:00,
2016-02-07 10:16:00,41.9,24.1,29.97,South,177,6.0,6.0,49,0.00,,,0.00,WeatherCatV2.21B110,2016-02-07 15:16:00,
2016-02-07 10:21:00,42.1,24.3,29.97,South,179,6.0,11.0,49,0.00,,,0.00,WeatherCatV2.21B110,2016-02-07 15:21:00,
2016-02-07 10:36:00,42.5,24.7,29.96,SW,235,6.0,7.0,49,0.00,,,0.00,WeatherCatV2.21B110,2016-02-07 15:36:00,
2016-02-07 10:42:00,42.8,25.0,29.96,SSW,199,4.0,7.0,49,0.00,,,0.00,WeatherCatV2.21B110,2016-02-07 15:42:00,
2016-02-07 10:47:00,42.8,24.5,29.96,SSW,206,4.0,4.0,48,0.00,,,0.00,WeatherCatV2.21B110,2016-02-07 15:47:00,
2016-02-07 10:52:00,43.1,24.8,29.96,SSW,204,0.0,5.0,48,0.00,,,0.00,WeatherCatV2.21B110,2016-02-07 15:52:00,
2016-02-07 10:57:00,43.1,24.8,29.96,SW,216,5.0,6.0,48,0.00,,,0.00,WeatherCatV2.21B110,2016-02-07 15:57:00,
2016-02-07 11:13:00,44.5,25.5,29.95,SSE,161,5.0,7.0,47,0.00,,,0.00,WeatherCatV2.21B110,2016-02-07 16:13:00,
2016-02-07 11:23:00,45.5,26.5,29.94,SSW,199,9.0,11.0,47,0.00,,,0.00,WeatherCatV2.21B110,2016-02-07 16:23:00,
2016-02-07 11:28:00,46.1,26.5,29.94,South,179,7.0,11.0,46,0.00,,,0.00,WeatherCatV2.21B110,2016-02-07 16:28:00,
2016-02-07 11:39:00,46.5,27.4,29.94,SW,216,5.0,10.0,47,0.00,,,0.00,WeatherCatV2.21B110,2016-02-07 16:39:00,
2016-02-07 11:44:00,47.0,27.8,29.92,WSW,252,3.0,7.0,47,0.00,,,0.00,WeatherCatV2.21B110,2016-02-07 16:44:00,
2016-02-07 11:49:00,47.7,28.5,29.92,SW,220,5.0,12.0,47,0.00,,,0.00,WeatherCatV2.21B110,2016-02-07 16:49:00,
2016-02-07 11:54:00,48.2,28.9,29.92,SW,214,6.0,7.0,47,0.00,,,0.00,WeatherCatV2.21B110,2016-02-07 16:54:00,
2016-02-07 12:00:00,48.8,29.5,29.91,SW,229,5.0,11.0,47,0.00,,,0.00,WeatherCatV2.21B110,2016-02-07 17:00:00,
2016-02-07 12:05:00,49.4,29.5,29.91,SSW,213,6.0,14.0,46,0.00,,,0.00,WeatherCatV2.21B110,2016-02-07 17:05:00,
2016-02-07 12:10:00,49.6,29.1,29.91,SSW,197,9.0,15.0,45,0.00,,,0.00,WeatherCatV2.21B110,2016-02-07 17:10:00,
2016-02-07 12:15:00,49.8,29.9,29.90,SW,233,5.0,14.0,46,0.00,,,0.00,WeatherCatV2.21B110,2016-02-07 17:15:00,
2016-02-07 12:20:00,49.6,29.1,29.90,SSW,204,7.0,19.0,45,0.00,,,0.00,WeatherCatV2.21B110,2016-02-07 17:20:00,
2016-02-07 12:26:00,49.6,29.1,29.90,SSW,207,10.0,17.0,45,0.00,,,0.00,WeatherCatV2.21B110,2016-02-07 17:26:00,
2016-02-07 12:29:00,49.8,29.9,29.89,SW,214,13.0,17.0,46,0.00,,,0.00,WeatherCatV2.21B110,2016-02-07 17:29:00,
2016-02-07 12:34:00,50.1,29.0,29.89,SSW,196,6.0,13.0,44,0.00,,,0.00,WeatherCatV2.21B110,2016-02-07 17:34:00,
2016-02-07 12:39:00,50.2,28.6,29.89,South,175,7.0,17.0,43,0.00,,,0.00,WeatherCatV2.21B110,2016-02-07 17:39:00,
2016-02-07 12:45:00,50.2,29.1,29.87,SW,233,4.0,10.0,44,0.00,,,0.00,WeatherCatV2.21B110,2016-02-07 17:45:00,
2016-02-07 12:50:00,50.7,28.5,29.87,South,171,9.0,13.0,42,0.00,,,0.00,WeatherCatV2.21B110,2016-02-07 17:50:00,
2016-02-07 12:56:00,51.1,28.8,29.87,SW,231,6.0,13.0,42,0.00,,,0.00,WeatherCatV2.21B110,2016-02-07 17:56:00,
2016-02-07 13:01:00,51.3,27.8,29.86,South,191,8.0,17.0,40,0.00,,,0.00,WeatherCatV2.21B110,2016-02-07 18:01:00,